User: anonymous   Login
Location: Unspecified
(0.0000°N, 0.0000°E)
Time: 01:41:36
(UTC+00:00)
Language:

MUOS 4 - Orbit

View from above orbital plane
View from above orbital plane
View from above satellite
View from above satellite

Ground track
Ground track

The orbit data is extracted from the following two-line orbital elements,

1 40887U 15044A   17111.12718907 0.00000000  00000-0  00000-0 0    00
2 40887   4.4011 330.1477 0058307   3.1508 356.9118  1.00270000    07
Epoch (UTC): 21 April 2017 03:03:09
Eccentricity: 0.0058307
inclination: 4.4011°
perigee height: 35541 km
apogee height: 36032 km
right ascension of ascending node: 330.1477°
argument of perigee: 3.1508°
revolutions per day: 1.00270000
mean anomaly at epoch: 356.9118°
orbit number at epoch: 0

The dashed part of the orbit path shows where the satellite is in the earth's shadow,  

DLR